Regional Weather Roundup
Issued by NWS Goodland, KS

Home | Current Version | Previous Version | Text Only | Print | Product List | Glossary On
Versions: 1 2 3 4 5 6 7 8 9 10 11 12 13 14 15 16 17 18 19 20 21 22 23 24 25 26 27 28 29 30 31 32 33 34 35 36 37 38 39 40 41 42 43 44 45 46 47 48 49 50
362
ASUS43 KGLD 280008
RWRGLD

GOODLAND FORECAST AREA HOURLY WEATHER ROUNDUP
NATIONAL WEATHER SERVICE GOODLAND KS
600 PM MDT SAT MAY 27 2017

...OFFICIAL OBSERVATIONS...

CITY           SKY/WX    TMP DP  RH WIND       PRES   REMARKS
GOODLAND KS    LGT RAIN  55  51  86 NW9       30.09R
HILL CITY KS   PTSUNNY   70  55  59 N17       29.98R
IMPERIAL NEB   CLOUDY    62  49  62 NE3       30.05F
MCCOOK NEB     CLOUDY    66  51  58 NW12      30.03R
AKRON CO       MOSUNNY   61  42  49 N15       30.13S
BURLINGTON CO  PTSUNNY   54  49  83 NW13      30.11F
LIMON CO       SUNNY     53  43  68 NW16      30.18R
$$

...UNOFFICIAL OBSERVATIONS...

CITY           SKY/WX    TMP DP  RH WIND       PRES   REMARKS
LENORA KS        N/A     69  32  25 MISG        N/A
NORTON KS      CLOUDY    64  52  63 NW10      29.99R
SHARON SPRINGS   N/A     54  49  83 NW20G32     N/A
TRENTON NEB      N/A     61  32  33 NW6         N/A
$$




USA.gov is the U.S. government's official web portal to all federal, state and local government web resources and services.